Window Rock, AZ

12:58 PM MST on December 17, 2017 (GMT -0700)
Window Rock

Weather History for KRQE - May, 2013

Change the Weather History Date:

Tuesday, May 28, 2013

  Actual Average Record
Temperature  
Mean Temperature 58 °F -  
Max Temperature 72 °F 75 °F 90 °F (2014)
Min Temperature 43 °F 41 °F 26 °F (1965)
Degree Days  
Heating Degree Days 8    
Growing Degree Days 8 (Base 50)    
Moisture  
Dew Point 16 °F    
Average Humidity 21    
Maximum Humidity 43    
Minimum Humidity 9    
Precipitation  
Precipitation 0.00 in - - ()
Sea Level Pressure  
Sea Level Pressure 29.63 in    
Wind  
Wind Speed 6 mph (SW)    
Max Wind Speed 20 mph    
Max Gust Speed 32 mph    
Visibility 10 miles    
Events      
Averages and records for this station are not official NWS values.
T = Trace of Precipitation, MM = Missing Value Source: NWS Daily Summary

Daily Weather History Graph

Daily Weather History Graph

Search for Another Location

Airport or City:

Trip Planner

Search our weather history database for the weather conditions in past years. The results will help you decide how hot, cold, wet, or windy it might be!

Date:

Astronomy

May. 28, 2013 Rise Set
Actual Time 6:03 AM MDT 8:24 PM MDT
Civil Twilight 5:33 AM MDT 8:53 PM MDT
Nautical Twilight 4:57 AM MDT 9:29 PM MDT
Astronomical Twilight 4:18 AM MDT 10:09 PM MDT
Moon 11:54 PM MDT (5/28) 9:52 AM MDT (5/28)
Length of Visible Light 15h 19m
Length of Day
14h 21m
Waning Gibbous, 82% of the Moon is Illuminated
May 28
Waning Gibbous
May 31
Last Quarter
Jun 8
New
Jun 16
First Quarter
Jun 23
Full

Hourly Weather History & Observations

Time (MDT) Temp. Windchill Dew Point Humidity Pressure Visibility Wind Dir Wind Speed Gust Speed Precip Events Conditions
12:53 AM 53.1 °F - 16.0 °F 23% 29.72 in 10.0 mi South 4.6 mph - N/A   Clear
1:53 AM 52.0 °F - 16.0 °F 24% 29.71 in 10.0 mi Variable 3.5 mph - N/A   Clear
2:53 AM 48.0 °F - 17.1 °F 29% 29.71 in 10.0 mi Calm Calm - N/A   Clear
3:53 AM 51.1 °F - 18.0 °F 27% 29.70 in 10.0 mi Calm Calm - N/A   Clear
4:53 AM 45.0 °F 43.5 °F 18.0 °F 34% 29.71 in 10.0 mi East 3.5 mph - N/A   Clear
5:53 AM 43.0 °F - 18.0 °F 37% 29.71 in 10.0 mi Calm Calm - N/A   Clear
7:53 AM 52.0 °F - 19.0 °F 27% 29.69 in 10.0 mi Calm Calm - N/A   Clear
8:53 AM 57.0 °F - 19.0 °F 23% 29.71 in 10.0 mi Calm Calm - N/A   Clear
9:53 AM 62.1 °F - 19.9 °F 20% 29.68 in 10.0 mi SSW 8.1 mph 16.1 mph N/A   Clear
10:53 AM 63.0 °F - 17.1 °F 17% 29.70 in 10.0 mi WSW 8.1 mph 18.4 mph N/A   Clear
11:53 AM 66.0 °F - 15.1 °F 14% 29.65 in 10.0 mi SW 12.7 mph 19.6 mph N/A   Clear
12:53 PM 69.1 °F - 12.9 °F 11% 29.62 in 10.0 mi SSW 15.0 mph 24.2 mph N/A   Clear
1:53 PM 72.0 °F - 10.9 °F 10% 29.58 in 10.0 mi West 15.0 mph 26.5 mph N/A   Clear
2:53 PM 70.0 °F - 12.0 °F 11% 29.59 in 10.0 mi West 19.6 mph 32.2 mph N/A   Clear
3:53 PM 72.0 °F - 9.0 °F 9% 29.54 in 10.0 mi WSW 11.5 mph 27.6 mph N/A   Clear
4:53 PM 70.0 °F - 10.0 °F 10% 29.57 in 10.0 mi WSW 16.1 mph 26.5 mph N/A   Clear
5:53 PM 72.0 °F - 10.0 °F 9% 29.55 in 10.0 mi West 16.1 mph 28.8 mph N/A   Clear
6:53 PM 69.1 °F - 10.9 °F 11% 29.58 in 10.0 mi West 18.4 mph 25.3 mph N/A   Clear
7:53 PM 64.9 °F - 16.0 °F 15% 29.55 in 10.0 mi WSW 13.8 mph - N/A   Clear
8:53 PM 60.1 °F - 19.0 °F 20% 29.56 in 10.0 mi SSW 6.9 mph - N/A   Clear
9:53 PM 53.1 °F - 19.0 °F 26% 29.58 in 10.0 mi SSW 5.8 mph - N/A   Clear
10:53 PM 57.9 °F - 23.0 °F 26% 29.58 in 10.0 mi West 9.2 mph - N/A   Mostly Cloudy
11:53 PM 54.0 °F - 32.0 °F 43% 29.59 in 10.0 mi West 3.5 mph - N/A   Mostly Cloudy